Погода в Верхних Куларках

Россия / Забайкальский край     52°49′56″N   118°56′47″E
темп.,
°C
ветер,
м/с
пор.,
м/с
влажн.,
%
обл.,
%
осадки,
мм/ч
давл.,
гПа
погр.,
м
23 сентября, чт
чт2300:00+8юв119391 0.0 101610
03:00+8в2292100 0.1 101631
06:00+9вюв248894 0.1 1014107
09:00+10в1295100 0.9 101696
12:00+11юв3983100 0.1 1015739
15:00+13ююв4978100 0.6 10141025
18:00+12юв2683100 0.1 1015254
21:00+10юз119486 0.5 101825
24 сентября, пт
пт2400:00+5ююз24950 0.0 1020124
03:00+3ююз229820 0.0 102227
06:00+2юз119849 0.0 102418
09:00+6юз129077 0.0 1024255
12:00+10сз117172 0.0 1023739
15:00+12сз22554 0.0 10221085
18:00+10с116915 0.0 102229
21:00+5в118838 0.0 102410
25 сентября, сб
сб2500:00+5в119299 0.0 102410
03:00+5вюв119195 0.0 102511
06:00+4вюв1193100 0.0 102517
09:00+9вюв127580 0.0 1023173
12:00+13в126046 0.0 1023558
15:00+16юв2346100 0.0 10211346
18:00+13вюв2466100 0.0 1020108
21:00+11в2376100 0.0 102061
26 сентября, вс
вс2600:00+10в2478100 0.0 101991
03:00+9в3980100 0.0 1016260
06:00+9вюв41083100 0.0 1013348
09:00+9вюв41291100 1.3 1011773
12:00+10юв31192100 0.5 1008825
15:00+10в2695100 6.6 1005372
18:00+10в3697100 0.7 1002273
21:00+10вюв3798100 4.6 999268
27 сентября, пн
пн2700:00+9ююв249852 3.3 997110
03:00+6юз51295100 4.8 9991081
06:00+4юз51291100 0.9 1002974
09:00+3юз61289100 0.9 10031133
12:00+6юз61272100 0.1 10021457
15:00+7юз6136695 0.3 10031570
18:00+7зюз5126110 0.0 10021373
21:00+5юз413675 0.0 1004797